Temperature
17 17 17 17 17 17 17 17 17 17 17 17 17 17 17 17 16 17 16 16 16 16 16 16 16 16 16 16 16 16 16 16 16 16 16 15 15 15
17 17 17 17 17 17 17 17 17 17 16 17 17 17 17 16 16 16 16 16 16 16 16 16 16 16 16 16 16 16 16 16 16 16 15 15 15 15
16 16 16 16 16 16 16 16 16 16 16 16 16 16 16 16 16 16 16 16 16 16 16 16 16 16 16 16 15 15 15 15 15 15 15 15 15 15
16 16 16 16 16 16 16 16 16 16 16 16 16 16 16 16 16 16 16 15 15 16 16 15 15 15 15 15 15 15 15 15 15 15 15 15 15 15
16 16 16 16 16 15 15 15 15 15 15 15 15 15 15 15 15 15 15 15 15 15 15 15 15 15 15 15 15 15 15 15 15 15 15 15 15 14
16 15 15 15 15 15 15 15 15 15 15 15 15 15 15 15 15 15 15 15 15 15 15 15 15 15 15 15 15 15 15 15 15 15 14 14 14 14
15 15 15 15 15 15 15 15 15 15 15 14 14 14 14 14 15 14 14 14 15 15 15 15 15 15 15 15 15 15 15 14 14 14 14 14 14 14
15 15 15 15 15 15 15 14 14 14 14 14 14 14 14 14 14 14 14 14 14 14 14 14 14 14 14 14 14 14 14 14 14 14 14 14 14 14
14 14 14 14 14 14 14 14 14 14 14 14 14 14 13 13 13 13 13 13 13 14 14 14 14 14 14 14 14 14 14 14 14 14 14 13 13 13
14 14 14 14 14 14 14 14 14 14 14 13 13 13 13 13 13 13 13 13 13 13 14 13 14 14 14 14 14 14 14 14 14 13 13 13 13 13
14 14 14 14 14 14 14 13 13 13 13 13 13 13 13 13 13 13 13 12 13 13 13 13 13 13 14 14 14 14 14 13 13 13 13 13 13 13
14 14 14 14 14 13 13 13 13 13 13 13 13 13 13 13 13 13 13 12 12 12 13 13 13 13 13 13 13 13 13 13 13 13 13 13 12 12
13 13 13 13 13 13 13 13 13 13 13 13 13 13 13 13 13 12 13 12 12 12 12 13 13 13 13 13 13 13 13 13 13 13 13 12 12 12
13 13 13 13 13 13 13 13 13 13 13 12 12 12 12 12 12 12 12 12 12 12 12 12 12 12 12 12 12 12 12 12 12 12 12 12 12 12
13 13 13 13 13 13 13 13 13 12 12 12 12 12 12 12 12 12 12 12 12 12 12 12 12 12 12 12 12 12 12 12 12 12 12 12 12 11
13 13 13 13 12 12 13 13 12 12 12 12 12 12 12 12 12 12 11 11 11 11 11 12 12 12 12 12 12 12 11 11 11 11 11 11 11 11
12 12 12 12 12 12 12 12 12 12 12 12 12 12 11 11 11 11 11 11 11 11 11 11 11 11 11 11 11 11 11 11 11 11 11 11 11 11
12 12 12 12 12 12 12 12 12 12 12 12 11 11 11 11 11 11 11 11 11 11 11 11 11 11 11 11 11 11 11 11 11 11 11 10 10 10
12 11 11 11 11 11 11 11 11 11 11 11 11 11 11 11 11 11 11 11 11 11 11 11 11 11 10 10 11 11 11 11 11 10 10 10 10 10
11 11 11 11 11 11 11 11 11 11 11 11 11 11 11 11 11 11 11 11 10 10 10 10 11 11 10 10 10 10 11 11 10 10 10 10 10 10
11 11 11 11 11 11 11 11 11 11 11 11 11 11 11 11 11 11 11 10 10 10 10 10 11 10 10 10 10 10 10 10 10 10 10 10 10 9
10 10 10 10 10 10 10 10 10 10 10 10 10 10 10 10 10 10 10 10 10 10 10 10 10 10 10 10 10 10 10 10 10 10 10 10 10 9
10 10 10 10 10 10 10 10 10 10 10 10 10 10 10 10 10 10 10 10 10 10 10 10 10 10 10 10 10 10 10 10 9 9 9 9 9 9
Wind_Speed
4 3 3 3 3 2 2 2 2 3 4 2 1 1 2 3 5 5 4 8 11 12 12 12 11 10 10 10 9 8 8 8 9 10 10 11 12 12
3 3 3 3 3 3 3 2 2 3 3 2 2 1 1 2 5 5 4 7 11 12 13 13 12 11 10 10 9 9 8 8 8 9 10 10 11 11
3 3 3 3 3 4 3 3 3 3 3 3 2 1 2 3 3 3 6 6 7 12 13 13 13 12 11 11 11 10 9 9 9 9 11 11 11 11
3 3 3 3 3 3 4 4 3 3 3 4 3 3 4 4 4 4 5 6 5 9 12 12 13 13 13 12 11 10 10 9 9 9 10 11 11 11
3 3 4 3 4 4 4 4 3 3 3 4 4 3 3 3 2 3 4 4 6 6 8 11 12 13 13 12 11 11 10 9 9 9 10 11 11 11
3 3 4 3 4 5 4 3 3 3 3 4 4 3 3 2 2 3 3 2 4 5 4 6 9 11 12 12 11 11 11 10 9 9 10 10 10 10
4 4 4 3 3 3 4 3 3 3 3 4 4 3 2 2 3 3 3 3 3 3 3 3 4 5 7 9 11 12 11 11 10 10 10 10 10 9
4 4 4 3 3 3 3 4 4 4 4 4 4 3 3 3 3 4 3 4 4 3 3 5 3 4 5 5 9 12 12 12 11 11 10 10 10 9
3 4 5 4 2 2 4 5 5 6 6 5 5 5 4 4 4 4 4 5 6 5 4 5 3 3 3 5 9 12 12 12 12 11 10 10 10 10
3 3 3 3 4 3 4 4 4 4 6 5 5 6 6 4 5 6 6 6 6 5 4 4 4 4 4 3 8 11 13 12 12 11 11 10 10 10
3 3 3 3 3 4 3 4 4 4 5 6 7 7 8 8 7 5 5 5 6 5 3 3 3 3 3 3 6 10 11 12 12 11 11 10 10 9
2 2 2 2 3 3 3 4 5 5 5 5 6 7 7 8 8 6 5 5 5 4 3 3 3 2 2 2 2 4 6 8 10 11 11 9 8 6
3 3 2 2 4 5 5 5 7 7 6 6 6 5 5 4 4 5 5 5 5 5 3 2 3 2 2 2 2 3 4 4 5 5 7 8 8 7
4 3 2 3 5 7 6 8 9 7 6 5 5 4 4 4 3 4 5 5 4 5 4 3 3 3 3 3 3 2 2 3 3 3 4 6 7 8
5 5 5 7 6 6 8 9 7 5 4 5 5 5 3 3 3 3 3 3 4 6 6 4 3 3 3 4 3 2 2 2 2 2 3 4 4 4
4 6 7 8 7 7 6 5 5 4 4 4 4 4 3 2 3 3 2 3 4 4 4 4 3 3 4 4 4 3 3 2 2 2 2 3 4 5
5 5 5 4 4 4 4 4 4 3 4 5 5 4 3 3 3 3 3 3 4 4 3 3 3 3 3 3 4 4 3 2 2 2 2 2 2 3
4 5 5 4 4 4 4 4 4 4 4 4 4 4 4 3 3 3 3 4 4 4 3 2 2 2 2 2 3 4 3 3 2 2 2 2 2 2
4 5 4 4 4 4 4 4 4 4 4 4 4 4 4 4 3 3 3 4 4 4 3 3 3 3 3 3 2 3 3 2 2 2 2 2 2 2
4 4 4 4 4 4 4 4 4 4 4 4 4 4 3 3 4 4 3 4 3 3 3 3 3 3 3 3 2 2 2 2 2 2 2 1 1 2
4 4 4 4 4 4 4 4 4 4 4 4 3 3 3 3 3 3 3 4 4 3 4 3 3 3 2 1 1 1 0 0 2 2 2 2 2 2
3 3 4 4 4 4 4 4 4 4 3 3 3 3 3 3 3 4 4 3 4 4 4 2 2 1 2 2 2 2 1 1 2 5 4 2 2 2
3 3 3 4 4 3 4 5 6 4 3 3 4 3 3 4 3 3 3 3 3 2 2 2 1 1 1 1 1 1 2 2 2 2 1 2 3 4
Wind_Direction
286 277 279 280 282 277 268 255 259 273 271 266 262 207 184 194 188 206 214 213 214 216 221 226 230 236 239 240 241 241 243 245 244 236 229 226 224 224
258 273 287 287 289 286 277 264 245 252 271 275 267 269 265 256 205 218 236 234 225 221 224 227 228 230 234 235 235 236 238 239 239 236 230 227 226 226
277 272 275 287 293 294 296 284 268 259 268 285 289 282 256 261 233 228 247 235 231 229 224 225 225 225 227 230 233 234 234 236 237 233 227 224 223 223
278 281 276 278 274 281 286 282 277 276 270 280 272 262 258 243 234 240 257 259 242 235 221 222 223 223 224 226 229 230 230 232 235 232 226 221 220 222
286 282 279 282 275 275 269 270 272 274 254 261 268 262 267 266 251 257 267 271 270 249 219 219 225 222 222 222 224 226 224 226 229 228 225 221 219 219
288 282 270 264 264 273 268 267 277 283 280 272 272 272 268 271 263 259 268 268 276 275 245 221 223 219 219 217 219 218 217 220 224 225 222 220 220 220
299 288 274 262 264 271 273 276 276 272 276 273 270 277 281 303 299 285 284 274 267 267 271 253 220 212 211 219 219 220 218 217 219 221 219 217 216 215
291 293 276 263 264 260 275 276 273 270 280 284 282 283 283 289 293 289 290 292 281 263 262 266 240 221 212 205 210 214 216 217 218 220 219 216 216 216
282 284 292 294 278 251 258 259 256 256 254 263 274 281 283 288 288 286 285 280 274 276 275 273 265 253 237 221 210 206 210 213 215 216 218 219 217 217
279 282 287 285 293 287 270 264 255 260 258 253 253 263 271 278 272 272 272 273 269 265 252 257 259 257 259 216 208 199 203 207 210 212 214 216 217 217
290 291 284 272 284 292 285 280 272 267 270 268 256 251 252 256 257 267 270 270 275 269 260 257 265 266 258 243 212 203 203 203 207 212 215 216 218 214
277 267 270 271 286 294 275 278 277 280 284 278 267 259 251 250 246 238 251 265 276 276 267 263 272 285 282 260 234 192 200 210 215 218 214 212 207 200
281 278 270 249 265 269 263 265 269 282 288 276 265 257 251 244 230 230 233 245 260 267 274 280 286 283 264 277 264 219 199 199 202 216 212 206 197 191
290 288 292 294 285 271 261 259 270 279 277 276 275 268 261 257 249 241 230 233 245 257 266 266 273 272 276 275 275 260 226 201 193 193 185 191 202 207
286 294 289 281 285 274 253 253 261 266 270 274 277 274 262 261 262 258 249 245 256 265 263 243 244 262 265 269 269 266 268 236 197 183 178 181 198 203
299 301 285 270 267 267 270 254 246 254 260 269 277 277 267 255 251 245 246 247 257 263 260 247 231 238 257 263 261 262 257 240 211 184 185 200 204 203
295 286 279 279 271 266 263 260 250 248 255 260 268 273 265 260 260 259 252 259 258 258 258 257 239 229 241 266 266 252 240 239 211 186 180 207 223 200
280 279 284 287 290 289 286 275 261 261 259 256 260 261 252 251 257 260 251 246 258 260 256 250 241 257 259 277 240 241 242 239 216 193 193 199 219 196
264 279 290 294 296 294 292 293 287 283 281 274 268 267 264 257 254 254 248 246 248 254 252 241 226 225 243 266 272 231 231 232 213 213 206 203 214 196
270 282 289 292 294 297 297 296 295 292 286 283 283 278 275 266 261 258 252 252 250 256 253 243 231 226 230 238 265 285 247 214 207 201 204 184 117 125
297 298 299 302 300 300 303 297 295 292 290 292 294 293 287 281 271 261 245 236 236 243 244 243 239 226 219 210 220 244 301 129 150 167 178 168 179 181
294 296 301 303 304 304 304 300 298 300 301 298 296 293 289 283 276 271 261 246 234 231 237 231 218 217 209 204 209 219 193 129 93 79 67 90 174 192
299 305 305 307 309 314 320 316 309 304 303 297 293 292 290 287 284 269 259 255 248 231 221 214 215 218 214 184 189 185 142 142 141 113 56 28 139 157
Height
1514 1514 1514 1514 1514 1514 1514 1514 1515 1513 1513 1513 1514 1513 1513 1513 1512 1512 1511 1511 1510 1510 1510 1509 1509 1509 1509 1509 1510 1510 1510 1510 1510 1510 1511 1512 1514 1515
1511 1512 1511 1511 1511 1511 1511 1511 1511 1512 1511 1510 1511 1511 1511 1510 1510 1509 1508 1508 1507 1507 1506 1506 1505 1505 1505 1505 1505 1506 1506 1506 1506 1506 1506 1508 1509 1510
1510 1509 1509 1508 1508 1508 1508 1508 1508 1508 1508 1507 1508 1508 1508 1507 1506 1506 1505 1505 1504 1503 1502 1502 1502 1501 1501 1501 1502 1502 1502 1502 1502 1502 1503 1503 1505 1506
1508 1507 1506 1506 1505 1504 1505 1505 1505 1505 1505 1504 1504 1504 1504 1503 1503 1502 1502 1501 1500 1500 1499 1498 1498 1498 1497 1497 1498 1498 1498 1498 1498 1498 1499 1499 1500 1501
1505 1504 1503 1503 1502 1501 1501 1501 1501 1501 1501 1501 1500 1500 1500 1500 1499 1499 1498 1498 1497 1496 1496 1495 1494 1494 1494 1493 1494 1494 1494 1494 1494 1494 1494 1495 1496 1497
1501 1500 1499 1499 1499 1498 1498 1498 1498 1497 1498 1497 1497 1497 1497 1496 1496 1495 1494 1494 1493 1493 1492 1491 1491 1490 1490 1489 1490 1490 1490 1489 1490 1490 1490 1491 1491 1492
1498 1497 1496 1496 1495 1494 1494 1494 1494 1494 1494 1494 1493 1493 1493 1493 1492 1492 1491 1490 1489 1489 1488 1488 1487 1486 1486 1486 1486 1486 1486 1485 1486 1486 1486 1486 1487 1488
1494 1493 1493 1493 1492 1491 1490 1490 1490 1490 1490 1490 1489 1489 1489 1489 1488 1488 1487 1486 1485 1486 1485 1484 1484 1482 1482 1482 1482 1482 1482 1481 1481 1482 1482 1482 1483 1484
1490 1490 1490 1489 1488 1488 1487 1486 1487 1487 1487 1487 1486 1485 1485 1484 1484 1483 1483 1482 1481 1481 1481 1480 1480 1479 1479 1478 1478 1478 1478 1478 1478 1478 1478 1478 1479 1479
1488 1488 1487 1486 1486 1485 1484 1483 1482 1482 1483 1482 1482 1481 1481 1480 1480 1480 1479 1478 1477 1477 1477 1476 1476 1476 1475 1475 1475 1475 1475 1475 1474 1474 1474 1474 1475 1475
1485 1485 1484 1483 1483 1482 1481 1480 1479 1479 1478 1478 1478 1477 1476 1476 1476 1476 1475 1474 1473 1473 1473 1473 1472 1471 1471 1471 1472 1472 1472 1472 1471 1471 1471 1470 1471 1471
1482 1482 1481 1480 1480 1479 1478 1477 1475 1475 1474 1474 1473 1472 1472 1471 1471 1471 1470 1470 1469 1469 1469 1469 1468 1468 1467 1467 1468 1468 1468 1468 1468 1467 1467 1467 1467 1467
1479 1478 1478 1477 1476 1475 1474 1473 1472 1471 1470 1469 1468 1468 1467 1467 1466 1466 1466 1466 1465 1465 1465 1465 1464 1464 1464 1464 1463 1464 1464 1464 1464 1463 1463 1464 1464 1464
1475 1475 1474 1473 1472 1471 1470 1470 1469 1468 1467 1466 1465 1464 1463 1462 1462 1461 1461 1461 1461 1461 1461 1461 1460 1460 1460 1460 1459 1459 1460 1460 1460 1460 1459 1460 1460 1461
1472 1471 1470 1469 1468 1467 1467 1466 1465 1464 1463 1462 1461 1460 1459 1458 1458 1458 1457 1456 1456 1456 1456 1456 1456 1456 1456 1456 1456 1456 1456 1456 1456 1456 1456 1456 1456 1457
1469 1468 1467 1466 1465 1464 1463 1462 1461 1460 1459 1458 1457 1456 1456 1455 1454 1454 1453 1452 1452 1451 1451 1451 1451 1452 1451 1451 1452 1451 1452 1452 1452 1452 1452 1452 1453 1453
1465 1464 1463 1462 1461 1460 1459 1458 1457 1456 1455 1454 1453 1453 1452 1451 1450 1450 1449 1448 1448 1447 1446 1447 1447 1447 1447 1448 1447 1448 1448 1448 1448 1448 1449 1449 1450 1450
1462 1461 1460 1459 1458 1457 1456 1455 1454 1453 1452 1450 1450 1449 1448 1447 1446 1445 1445 1444 1443 1443 1443 1443 1443 1443 1444 1444 1445 1444 1444 1444 1445 1445 1445 1446 1446 1447
1459 1458 1457 1456 1455 1454 1453 1452 1451 1449 1448 1447 1446 1445 1444 1443 1442 1441 1441 1440 1439 1439 1439 1439 1439 1440 1440 1440 1440 1441 1441 1441 1441 1442 1442 1443 1443 1443
1455 1455 1454 1453 1452 1450 1449 1448 1447 1446 1444 1443 1442 1441 1440 1439 1438 1437 1436 1436 1436 1435 1435 1436 1436 1436 1436 1437 1437 1437 1438 1438 1438 1438 1439 1439 1440 1441
1452 1451 1451 1450 1448 1447 1446 1444 1443 1442 1440 1439 1438 1436 1435 1435 1434 1433 1432 1432 1432 1432 1431 1432 1432 1433 1433 1434 1434 1434 1435 1435 1435 1436 1436 1437 1437 1437
1450 1449 1448 1447 1445 1444 1442 1441 1440 1438 1437 1435 1434 1433 1432 1431 1430 1429 1429 1429 1428 1428 1428 1429 1429 1430 1430 1430 1430 1431 1432 1432 1433 1434 1434 1435 1434 1434
1447 1446 1445 1443 1442 1441 1439 1438 1436 1435 1433 1432 1430 1429 1428 1427 1426 1426 1425 1426 1426 1425 1425 1425 1426 1426 1427 1428 1428 1429 1429 1430 1431 1431 1432 1433 1433 1433